{"data":{"norad_id":56413,"intl_designator":"2023-061AR","name":"STARLINK-6258","alt_names":[],"object_type":"PAYLOAD","status":"ACTIVE","operator":null,"country":"US","launch_date":"2023-05-04","launch_site_code":"AFETR","launch_vehicle":null,"mission":null,"orbit_class":"UNKNOWN","rcs_meters":null,"size_class":null,"mass_kg":null,"dimensions":null,"purposes":["comms"],"wikipedia_slug":null,"has_3d_model":false,"image_url":null,"decayed_at":null,"tle_current":{"epoch":"2026-05-25T05:15:43.135200Z","epoch_age_seconds":49474,"freshness":"FRESH","line1":"1 56413U 23061AR  26145.21924925  .00000055  00000+0  11518-4 0  9992","line2":"2 56413  43.0005 115.2758 0000647 291.0715  69.0067 15.27572959168571","mean_motion":15.27572959,"eccentricity":6.47e-5,"inclination_deg":43.0005,"raan_deg":115.2758,"arg_perigee_deg":291.0715,"mean_anomaly_deg":69.0067,"bstar":1.1518e-5,"rev_number":16857,"period_min":94.267183214782,"perigee_km":482.62625930311,"apogee_km":483.51409951213,"semimajor_km":6861.2071794076,"source":"CELESTRAK","updated_at":"2026-05-25T13:38:18.061378Z"}}}